Location: Peterborough
(44.3091°N, 78.3197°W)
Time: 20:15:17
(UTC-04:00)

Vanguard 2 Rocket - Pass Details

Date: 23 March 2023
Orbit: 554 x 3314 km, 32.9° (Epoch: 06 June)

Event Time Altitude Azimuth Distance (km) Brightness Sun altitude
Rises 22:26:51 0° 248° (WSW) 4,131 10.6 -30.4°
Reaches altitude 10° 22:29:18 10° 242° (WSW) 3,448 10.1 -30.7°
Maximum altitude 22:38:03 48° 171° (S) 2,465 8.6 -31.9°
Enters shadow 22:38:04 48° 171° (S) 2,465 8.6 -31.9°
